| time (UTC) | temp F | wind direction | speed MPH | gust MPH | rain 1hr in | rain 24hr in | rain mn in | humidity % | barometer mb |
| 20260506062003 | 47 | 0 | 0.0 | 0.0 | 0.07 | 0.89 | 0.22 | 95 | 1008.0 |
| 20260506061503 | 47 | 38 | 0.0 | 3.0 | 0.07 | 0.88 | 0.22 | 95 | 1008.2 |
| 20260506061003 | 47 | 38 | 0.0 | 3.0 | 0.08 | 0.88 | 0.21 | 94 | 1008.1 |
| 20260506060503 | 47 | 38 | 0.0 | 3.0 | 0.09 | 0.89 | 0.21 | 95 | 1007.8 |
| 20260506051003 | 47 | 77 | 0.0 | 1.0 | 0.13 | 0.82 | 0.13 | 94 | 1008.8 |
| 20260506050504 | 47 | 77 | 0.0 | 1.0 | 0.12 | 0.81 | 0.12 | 94 | 1008.9 |
| 20260506045003 | 47 | 77 | 0.0 | 2.0 | 0.08 | 0.77 | 0.08 | 94 | 1008.7 |
| 20260506044503 | 48 | 77 | 0.0 | 1.0 | 0.06 | 0.75 | 0.07 | 94 | 1008.7 |
| 20260506044217 | 48 | 77 | 0.0 | 1.0 | 0.06 | 0.75 | 0.06 | 94 | 1008.6 |
| 20260506043726 | 48 | 77 | 0.0 | 3.0 | 0.04 | 0.73 | 0.04 | 94 | 1008.6 |
| 20260506043004 | 48 | 77 | 0.0 | 3.0 | 0.04 | 0.72 | 0.03 | 94 | 1008.4 |
| 20260506042504 | 48 | 0 | 0.0 | 0.0 | 0.03 | 0.71 | 0.02 | 94 | 1008.7 |
| 20260506042004 | 48 | 0 | 0.0 | 0.0 | 0.02 | 0.70 | 0.01 | 94 | 1008.6 |
| 20260506041503 | 48 | 77 | 0.0 | 1.0 | 0.03 | 0.70 | 0.01 | 94 | 1008.5 |
| 20260506041003 | 48 | 77 | 0.0 | 2.0 | 0.03 | 0.69 | 0.00 | 94 | 1008.4 |
| 20260506040722 | 48 | 78 | 0.0 | 2.0 | 0.03 | 0.69 | 0.00 | 94 | 1008.4 |
| 20260506040004 | 48 | 83 | 0.0 | 2.0 | 0.04 | 0.69 | 0.00 | 94 | 1008.3 |
| 20260506035503 | 48 | 89 | 0.0 | 1.0 | 0.05 | 0.69 | 0.69 | 94 | 1008.4 |
| 20260506035004 | 48 | 0 | 0.0 | 0.0 | 0.05 | 0.69 | 0.69 | 94 | 1008.5 |
| 20260506034503 | 48 | 0 | 0.0 | 0.0 | 0.06 | 0.69 | 0.69 | 94 | 1008.3 |
| 20260506034003 | 48 | 0 | 0.0 | 0.0 | 0.07 | 0.69 | 0.69 | 94 | 1008.4 |
| 20260506033503 | 48 | 0 | 0.0 | 0.0 | 0.07 | 0.69 | 0.69 | 94 | 1008.6 |
| 20260506033004 | 48 | 0 | 0.0 | 0.0 | 0.07 | 0.68 | 0.68 | 94 | 1008.6 |
| 20260506032508 | 48 | 0 | 0.0 | 0.0 | 0.07 | 0.68 | 0.68 | 94 | 1008.6 |
| 20260506032003 | 48 | 0 | 0.0 | 0.0 | 0.07 | 0.68 | 0.68 | 94 | 1008.8 |
| 20260506031718 | 48 | 0 | 0.0 | 0.0 | 0.06 | 0.67 | 0.67 | 94 | 1008.6 |
| 20260506031003 | 48 | 0 | 0.0 | 0.0 | 0.06 | 0.66 | 0.67 | 94 | 1008.7 |
| 20260506030718 | 48 | 0 | 0.0 | 0.0 | 0.06 | 0.66 | 0.66 | 94 | 1008.7 |
| 20260506030221 | 48 | 0 | 0.0 | 0.0 | 0.05 | 0.65 | 0.65 | 94 | 1008.7 |
| 20260506025503 | 48 | 0 | 0.0 | 0.0 | 0.04 | 0.64 | 0.64 | 94 | 1009.0 |
| 20260506025003 | 48 | 0 | 0.0 | 0.0 | 0.04 | 0.64 | 0.64 | 94 | 1009.2 |
| 20260506024504 | 48 | 0 | 0.0 | 0.0 | 0.03 | 0.63 | 0.63 | 94 | 1009.1 |
| 20260506024003 | 48 | 0 | 0.0 | 0.0 | 0.02 | 0.62 | 0.62 | 94 | 1008.9 |
| 20260506023718 | 48 | 0 | 0.0 | 0.0 | 0.02 | 0.62 | 0.62 | 94 | 1009.0 |
| 20260506023003 | 48 | 0 | 0.0 | 0.0 | 0.01 | 0.61 | 0.61 | 94 | 1009.1 |
| 20260506022503 | 48 | 0 | 0.0 | 0.0 | 0.01 | 0.61 | 0.61 | 94 | 1009.1 |
| 20260506022003 | 48 | 0 | 0.0 | 0.0 | 0.02 | 0.61 | 0.61 | 94 | 1009.1 |
| 20260506021503 | 48 | 0 | 0.0 | 0.0 | 0.02 | 0.61 | 0.61 | 94 | 1009.1 |
| 20260506021004 | 48 | 0 | 0.0 | 0.0 | 0.01 | 0.60 | 0.60 | 94 | 1008.9 |
| 20260506020717 | 48 | 0 | 0.0 | 0.0 | 0.01 | 0.60 | 0.60 | 94 | 1009.0 |
| 20260506020004 | 48 | 0 | 0.0 | 0.0 | 0.02 | 0.60 | 0.60 | 94 | 1009.0 |
| 20260506015503 | 48 | 0 | 0.0 | 0.0 | 0.03 | 0.60 | 0.60 | 94 | 1009.1 |
| 20260506015003 | 48 | 0 | 0.0 | 0.0 | 0.03 | 0.60 | 0.60 | 94 | 1009.2 |
| 20260506014717 | 48 | 0 | 0.0 | 0.0 | 0.04 | 0.60 | 0.60 | 94 | 1009.3 |
| 20260506014003 | 48 | 161 | 0.0 | 1.0 | 0.06 | 0.60 | 0.60 | 94 | 1009.2 |
| 20260506013503 | 48 | 161 | 0.0 | 1.0 | 0.07 | 0.60 | 0.60 | 94 | 1009.2 |
| 20260506013003 | 48 | 0 | 0.0 | 0.0 | 0.08 | 0.60 | 0.60 | 94 | 1009.0 |
| 20260506012503 | 48 | 0 | 0.0 | 0.0 | 0.09 | 0.60 | 0.60 | 94 | 1008.8 |
| 20260506012003 | 48 | 0 | 0.0 | 0.0 | 0.09 | 0.59 | 0.59 | 94 | 1008.9 |
| 20260506011503 | 48 | 0 | 0.0 | 0.0 | 0.10 | 0.59 | 0.59 | 94 | 1008.8 |
| 20260506011003 | 48 | 0 | 0.0 | 0.0 | 0.11 | 0.59 | 0.59 | 94 | 1008.8 |
| 20260506010507 | 48 | 0 | 0.0 | 0.0 | 0.12 | 0.59 | 0.59 | 94 | 1008.8 |
| 20260506010004 | 48 | 0 | 0.0 | 0.0 | 0.13 | 0.58 | 0.58 | 94 | 1008.9 |
| 20260506005505 | 48 | 0 | 0.0 | 0.0 | 0.13 | 0.57 | 0.57 | 94 | 1008.9 |
| 20260506005003 | 48 | 0 | 0.0 | 0.0 | 0.14 | 0.57 | 0.57 | 93 | 1009.1 |
| 20260506004507 | 48 | 0 | 0.0 | 0.0 | 0.15 | 0.56 | 0.56 | 93 | 1009.2 |
| 20260506004009 | 48 | 161 | 0.0 | 1.0 | 0.14 | 0.54 | 0.54 | 93 | 1009.1 |
| 20260506003717 | 48 | 161 | 0.0 | 1.0 | 0.13 | 0.53 | 0.53 | 93 | 1009.0 |
| 20260506003005 | 48 | 161 | 0.0 | 2.0 | 0.13 | 0.52 | 0.52 | 93 | 1008.8 |
| 20260506002509 | 48 | 161 | 0.0 | 2.0 | 0.12 | 0.51 | 0.51 | 93 | 1008.8 |
| 20260506002005 | 49 | 161 | 0.0 | 1.0 | 0.12 | 0.50 | 0.50 | 93 | 1008.5 |
| 20260506001503 | 49 | 161 | 0.0 | 1.0 | 0.12 | 0.49 | 0.49 | 93 | 1008.5 |
| 20260506001003 | 49 | 161 | 0.0 | 1.0 | 0.12 | 0.48 | 0.48 | 93 | 1008.5 |
| 20260506000503 | 49 | 161 | 0.0 | 2.0 | 0.12 | 0.47 | 0.47 | 93 | 1008.5 |
| 20260506000003 | 49 | 160 | 0.0 | 2.0 | 0.10 | 0.45 | 0.45 | 93 | 1008.5 |
| 20260505235503 | 49 | 157 | 0.0 | 1.0 | 0.10 | 0.44 | 0.44 | 93 | 1008.3 |
| 20260505235217 | 49 | 157 | 0.0 | 1.0 | 0.09 | 0.43 | 0.43 | 93 | 1008.3 |
| 20260505234718 | 49 | 152 | 0.0 | 2.0 | 0.09 | 0.42 | 0.42 | 93 | 1008.3 |
| 20260505234217 | 49 | 149 | 0.0 | 2.0 | 0.09 | 0.41 | 0.41 | 93 | 1008.1 |
| 20260505233503 | 49 | 143 | 0.0 | 2.0 | 0.10 | 0.40 | 0.40 | 92 | 1008.0 |
| 20260505233003 | 49 | 143 | 0.0 | 1.0 | 0.09 | 0.39 | 0.39 | 92 | 1007.8 |
| 20260505232503 | 49 | 143 | 0.0 | 1.0 | 0.10 | 0.39 | 0.39 | 92 | 1007.8 |
| 20260505232003 | 49 | 143 | 0.0 | 1.0 | 0.10 | 0.38 | 0.38 | 92 | 1007.8 |
| 20260505231503 | 49 | 138 | 0.0 | 2.0 | 0.10 | 0.37 | 0.37 | 92 | 1008.0 |
| 20260505231003 | 49 | 129 | 0.0 | 2.0 | 0.10 | 0.36 | 0.36 | 92 | 1008.0 |
| 20260505230506 | 49 | 128 | 0.0 | 4.0 | 0.10 | 0.35 | 0.35 | 92 | 1008.0 |
| 20260505230004 | 49 | 136 | 0.0 | 4.0 | 0.11 | 0.35 | 0.35 | 92 | 1008.0 |
| 20260505225504 | 49 | 254 | 0.0 | 1.0 | 0.11 | 0.34 | 0.34 | 92 | 1008.2 |
| 20260505225003 | 50 | 254 | 0.0 | 1.0 | 0.11 | 0.33 | 0.33 | 92 | 1008.2 |
| 20260505224718 | 50 | 254 | 0.0 | 1.0 | 0.12 | 0.33 | 0.33 | 92 | 1008.4 |
| 20260505224003 | 50 | 254 | 0.0 | 1.0 | 0.12 | 0.31 | 0.31 | 92 | 1008.3 |
| 20260505223504 | 50 | 254 | 0.0 | 2.0 | 0.13 | 0.30 | 0.30 | 92 | 1008.3 |
| 20260505223003 | 50 | 254 | 0.0 | 2.0 | 0.14 | 0.30 | 0.30 | 92 | 1008.3 |
| 20260505222503 | 50 | 0 | 0.0 | 0.0 | 0.14 | 0.29 | 0.29 | 92 | 1008.2 |
| 20260505222003 | 50 | 0 | 0.0 | 0.0 | 0.15 | 0.28 | 0.28 | 91 | 1008.5 |
| 20260505221503 | 50 | 0 | 0.0 | 0.0 | 0.17 | 0.27 | 0.27 | 91 | 1008.2 |
| 20260505221003 | 50 | 0 | 0.0 | 0.0 | 0.18 | 0.26 | 0.26 | 91 | 1008.1 |
| 20260505220503 | 50 | 0 | 0.0 | 0.0 | 0.18 | 0.25 | 0.25 | 91 | 1008.1 |
| 20260505220004 | 50 | 0 | 0.0 | 0.0 | 0.17 | 0.24 | 0.24 | 91 | 1008.2 |
| 20260505215503 | 50 | 0 | 0.0 | 0.0 | 0.17 | 0.23 | 0.23 | 91 | 1008.2 |
| 20260505215004 | 50 | 0 | 0.0 | 0.0 | 0.16 | 0.22 | 0.22 | 90 | 1008.3 |
| 20260505214503 | 51 | 0 | 0.0 | 0.0 | 0.14 | 0.20 | 0.20 | 90 | 1008.3 |
| 20260505214003 | 51 | 301 | 0.0 | 1.0 | 0.13 | 0.19 | 0.19 | 89 | 1008.1 |
| 20260505213503 | 51 | 315 | 1.0 | 2.0 | 0.11 | 0.17 | 0.17 | 89 | 1007.6 |
| 20260505213003 | 52 | 326 | 2.0 | 3.0 | 0.10 | 0.16 | 0.16 | 88 | 1007.8 |
| 20260505212503 | 53 | 331 | 2.0 | 5.0 | 0.09 | 0.15 | 0.15 | 87 | 1007.8 |
| 20260505212003 | 54 | 325 | 2.0 | 5.0 | 0.07 | 0.13 | 0.13 | 87 | 1007.7 |
| 20260505211503 | 55 | 313 | 1.0 | 4.0 | 0.04 | 0.10 | 0.10 | 89 | 1007.5 |
| 20260505211003 | 55 | 312 | 1.0 | 3.0 | 0.02 | 0.08 | 0.08 | 88 | 1007.3 |
| 20260505210504 | 55 | 276 | 2.0 | 4.0 | 0.01 | 0.07 | 0.07 | 88 | 1007.0 |
| 20260505210003 | 55 | 253 | 2.0 | 4.0 | 0.01 | 0.07 | 0.07 | 87 | 1006.9 |
| 20260505205717 | 56 | 249 | 2.0 | 4.0 | 0.00 | 0.06 | 0.06 | 86 | 1006.6 |
| 20260505205003 | 56 | 219 | 1.0 | 3.0 | 0.00 | 0.06 | 0.06 | 85 | 1006.4 |
| 20260505204503 | 57 | 234 | 2.0 | 3.0 | 0.00 | 0.06 | 0.06 | 85 | 1006.3 |
| 20260505204003 | 57 | 231 | 2.0 | 5.0 | 0.00 | 0.06 | 0.06 | 83 | 1006.1 |
| 20260505203503 | 58 | 222 | 2.0 | 5.0 | 0.00 | 0.06 | 0.06 | 82 | 1006.1 |
| 20260505203003 | 58 | 230 | 2.0 | 4.0 | 0.00 | 0.06 | 0.06 | 81 | 1005.9 |
| 20260505202503 | 58 | 231 | 3.0 | 5.0 | 0.00 | 0.06 | 0.06 | 79 | 1006.1 |
| 20260505202003 | 59 | 220 | 3.0 | 5.0 | 0.00 | 0.06 | 0.06 | 79 | 1006.0 |
| 20260505201503 | 59 | 208 | 3.0 | 8.0 | 0.00 | 0.06 | 0.06 | 78 | 1006.0 |
| 20260505201003 | 60 | 216 | 3.0 | 10.0 | 0.00 | 0.06 | 0.06 | 77 | 1006.1 |
| 20260505200506 | 61 | 221 | 3.0 | 10.0 | 0.00 | 0.06 | 0.06 | 75 | 1006.0 |
| 20260505200004 | 62 | 212 | 3.0 | 8.0 | 0.00 | 0.06 | 0.06 | 75 | 1005.7 |
| 20260505195505 | 62 | 208 | 3.0 | 10.0 | 0.00 | 0.06 | 0.06 | 73 | 1005.3 |
| 20260505195003 | 64 | 215 | 3.0 | 10.0 | 0.00 | 0.06 | 0.06 | 71 | 1005.4 |
| 20260505194503 | 64 | 234 | 3.0 | 8.0 | 0.00 | 0.06 | 0.06 | 69 | 1005.1 |
| 20260505194003 | 64 | 241 | 4.0 | 8.0 | 0.00 | 0.06 | 0.06 | 68 | 1005.0 |
| 20260505193503 | 65 | 237 | 5.0 | 10.0 | 0.00 | 0.06 | 0.06 | 67 | 1005.1 |
| 20260505193003 | 66 | 238 | 4.0 | 10.0 | 0.00 | 0.06 | 0.06 | 66 | 1004.9 |
| 20260505192503 | 66 | 237 | 4.0 | 8.0 | 0.00 | 0.06 | 0.06 | 66 | 1005.0 |
| 20260505192003 | 66 | 235 | 5.0 | 10.0 | 0.00 | 0.06 | 0.06 | 68 | 1005.0 |
| 20260505191717 | 66 | 238 | 6.0 | 11.0 | 0.00 | 0.06 | 0.06 | 65 | 1005.0 |
| 20260505191003 | 67 | 238 | 5.0 | 11.0 | 0.00 | 0.06 | 0.06 | 64 | 1005.0 |
| 20260505190504 | 67 | 241 | 5.0 | 11.0 | 0.00 | 0.06 | 0.06 | 66 | 1005.0 |
| 20260505190004 | 67 | 238 | 5.0 | 11.0 | 0.00 | 0.06 | 0.06 | 63 | 1004.9 |
| 20260505185503 | 67 | 234 | 4.0 | 10.0 | 0.00 | 0.06 | 0.06 | 64 | 1004.9 |
| 20260505185003 | 67 | 241 | 4.0 | 8.0 | 0.00 | 0.06 | 0.06 | 64 | 1004.9 |
| 20260505184503 | 67 | 243 | 5.0 | 10.0 | 0.00 | 0.06 | 0.06 | 64 | 1004.8 |
| 20260505184003 | 67 | 242 | 5.0 | 10.0 | 0.00 | 0.06 | 0.06 | 64 | 1004.7 |
| 20260505183503 | 68 | 241 | 5.0 | 10.0 | 0.00 | 0.06 | 0.06 | 63 | 1004.6 |
| 20260505183217 | 68 | 240 | 5.0 | 10.0 | 0.00 | 0.06 | 0.06 | 62 | 1004.7 |
| 20260505182503 | 67 | 239 | 4.0 | 10.0 | 0.00 | 0.06 | 0.06 | 65 | 1004.8 |
| 20260505182217 | 67 | 240 | 5.0 | 10.0 | 0.00 | 0.06 | 0.06 | 64 | 1004.7 |
| 20260505181503 | 66 | 240 | 5.0 | 10.0 | 0.00 | 0.06 | 0.06 | 67 | 1004.5 |
| 20260505181217 | 66 | 238 | 5.0 | 8.0 | 0.00 | 0.06 | 0.06 | 68 | 1004.7 |
| 20260505180503 | 66 | 240 | 6.0 | 12.0 | 0.00 | 0.06 | 0.06 | 67 | 1004.7 |
| 20260505180003 | 66 | 243 | 6.0 | 10.0 | 0.00 | 0.06 | 0.06 | 66 | 1004.5 |
| 20260505175503 | 67 | 240 | 5.0 | 9.0 | 0.00 | 0.06 | 0.06 | 65 | 1004.5 |
| 20260505175003 | 67 | 239 | 5.0 | 12.0 | 0.00 | 0.06 | 0.06 | 67 | 1004.4 |
| 20260505174719 | 67 | 240 | 5.0 | 12.0 | 0.00 | 0.06 | 0.06 | 67 | 1004.3 |
| 20260505174003 | 68 | 238 | 5.0 | 10.0 | 0.00 | 0.06 | 0.06 | 65 | 1004.3 |
| 20260505173503 | 67 | 239 | 6.0 | 11.0 | 0.00 | 0.06 | 0.06 | 67 | 1004.3 |
| 20260505173217 | 67 | 242 | 6.0 | 13.0 | 0.00 | 0.06 | 0.06 | 69 | 1004.4 |
| 20260505172503 | 66 | 240 | 6.0 | 13.0 | 0.00 | 0.06 | 0.06 | 67 | 1004.3 |
| 20260505172003 | 66 | 238 | 6.0 | 11.0 | 0.00 | 0.06 | 0.06 | 69 | 1004.4 |
| 20260505171503 | 66 | 239 | 5.0 | 13.0 | 0.00 | 0.06 | 0.06 | 68 | 1004.5 |
| 20260505171003 | 66 | 238 | 6.0 | 15.0 | 0.00 | 0.06 | 0.06 | 67 | 1004.4 |
| 20260505170503 | 67 | 234 | 5.0 | 15.0 | 0.00 | 0.06 | 0.06 | 65 | 1004.4 |
| 20260505170004 | 68 | 237 | 5.0 | 14.0 | 0.00 | 0.06 | 0.06 | 63 | 1004.3 |
| 20260505165503 | 68 | 242 | 6.0 | 16.0 | 0.00 | 0.06 | 0.06 | 64 | 1004.2 |
| 20260505165003 | 67 | 239 | 5.0 | 16.0 | 0.00 | 0.06 | 0.06 | 64 | 1004.2 |
| 20260505164503 | 68 | 230 | 4.0 | 9.0 | 0.00 | 0.06 | 0.06 | 63 | 1004.3 |
| 20260505164004 | 67 | 234 | 5.0 | 11.0 | 0.00 | 0.06 | 0.06 | 66 | 1004.1 |
| 20260505163503 | 67 | 238 | 5.0 | 13.0 | 0.00 | 0.06 | 0.06 | 67 | 1004.0 |
| 20260505163003 | 66 | 237 | 5.0 | 13.0 | 0.00 | 0.06 | 0.06 | 69 | 1004.0 |
| 20260505162511 | 66 | 224 | 5.0 | 12.0 | 0.00 | 0.06 | 0.06 | 69 | 1003.9 |
| 20260505162005 | 65 | 223 | 5.0 | 12.0 | 0.00 | 0.06 | 0.06 | 68 | 1003.6 |
| 20260505161504 | 64 | 236 | 5.0 | 10.0 | 0.00 | 0.06 | 0.06 | 70 | 1003.7 |
| 20260505161004 | 63 | 239 | 5.0 | 12.0 | 0.00 | 0.06 | 0.06 | 70 | 1004.1 |
| 20260505160503 | 63 | 244 | 5.0 | 12.0 | 0.00 | 0.06 | 0.06 | 68 | 1004.3 |
| 20260505153218 | 65 | 239 | 5.0 | 10.0 | 0.00 | 0.06 | 0.06 | 66 | 1003.8 |
| 20260505152717 | 65 | 234 | 4.0 | 9.0 | 0.00 | 0.06 | 0.06 | 67 | 1003.5 |
| 20260505152003 | 64 | 237 | 4.0 | 11.0 | 0.00 | 0.06 | 0.06 | 71 | 1003.4 |
| 20260505151717 | 64 | 237 | 4.0 | 11.0 | 0.00 | 0.06 | 0.06 | 69 | 1003.3 |
| 20260505151003 | 64 | 238 | 4.0 | 10.0 | 0.00 | 0.06 | 0.06 | 70 | 1003.2 |
| 20260505150503 | 64 | 244 | 4.0 | 8.0 | 0.00 | 0.06 | 0.06 | 69 | 1003.0 |
| 20260505140503 | 64 | 235 | 4.0 | 10.0 | 0.00 | 0.06 | 0.06 | 69 | 1002.8 |
| 20260505125003 | 67 | 237 | 3.0 | 7.0 | 0.00 | 0.06 | 0.06 | 66 | 1001.9 |
| 20260505124503 | 67 | 225 | 3.0 | 10.0 | 0.00 | 0.06 | 0.06 | 67 | 1001.8 |
| 20260505124003 | 67 | 221 | 4.0 | 11.0 | 0.00 | 0.06 | 0.06 | 68 | 1001.8 |
| 20260505123718 | 66 | 220 | 4.0 | 11.0 | 0.00 | 0.06 | 0.06 | 67 | 1001.8 |
| 20260505123003 | 66 | 222 | 3.0 | 10.0 | 0.00 | 0.06 | 0.06 | 68 | 1001.7 |
| 20260505122503 | 66 | 218 | 3.0 | 10.0 | 0.00 | 0.06 | 0.06 | 69 | 1001.7 |
| 20260505122003 | 66 | 220 | 3.0 | 8.0 | 0.00 | 0.06 | 0.06 | 69 | 1001.7 |
| 20260505121503 | 65 | 227 | 3.0 | 7.0 | 0.00 | 0.06 | 0.06 | 69 | 1001.6 |
| 20260505121003 | 65 | 233 | 3.0 | 7.0 | 0.00 | 0.06 | 0.06 | 69 | 1001.6 |
| 20260505120004 | 65 | 213 | 3.0 | 9.0 | 0.00 | 0.06 | 0.06 | 70 | 1001.4 |
| 20260505115503 | 65 | 202 | 4.0 | 16.0 | 0.00 | 0.06 | 0.06 | 70 | 1001.4 |
| 20260505115003 | 65 | 210 | 4.0 | 16.0 | 0.00 | 0.06 | 0.06 | 71 | 1001.3 |
| 20260505114503 | 64 | 220 | 3.0 | 11.0 | 0.00 | 0.06 | 0.06 | 71 | 1001.4 |
| 20260505114003 | 64 | 213 | 3.0 | 9.0 | 0.00 | 0.06 | 0.06 | 72 | 1001.3 |
| 20260505113718 | 64 | 214 | 3.0 | 9.0 | 0.00 | 0.06 | 0.06 | 72 | 1001.4 |
| 20260505113004 | 64 | 215 | 3.0 | 7.0 | 0.00 | 0.06 | 0.06 | 73 | 1001.3 |
| 20260505112503 | 64 | 217 | 3.0 | 9.0 | 0.00 | 0.06 | 0.06 | 72 | 1001.3 |
| 20260505112221 | 64 | 229 | 3.0 | 9.0 | 0.00 | 0.06 | 0.06 | 73 | 1001.3 |
| 20260505111503 | 64 | 228 | 3.0 | 15.0 | 0.00 | 0.06 | 0.06 | 74 | 1001.2 |
| 20260505111005 | 63 | 228 | 3.0 | 10.0 | 0.00 | 0.06 | 0.06 | 74 | 1001.0 |